Track COSMOS 1833 now! 10-day predictions COSMOS 1833 is classified as:
1 17589U 87027A 26221.12927986 -.00000178 00000-0 -69320-4 0 9993 2 17589 70.9227 5.5921 0026132 330.3329 29.6308 14.13066066 31856